CAPE
238 133 178 195 226 142 220 194 282 340 315 384 384 311 218 164 174 255 180 177 234 210 282 588 718 920 955 1028 1540 1605 1063 788 1156 1373 1653 1701 1043 767 707 692 791 858 855
174 292 358 310 403 197 225 131 287 237 238 267 175 188 286 373 353 400 396 201 397 365 247 240 193 488 1106 1062 1002 1320 1576 1209 830 977 1481 1672 1716 1193 939 882 869 948 986
185 1 37 78 241 552 217 346 270 229 210 182 344 363 404 677 535 572 367 179 276 434 377 389 372 617 594 851 1293 1106 1066 1174 1024 823 706 1224 1376 1606 1331 1172 1200 1180 1295
23 8 0 24 318 565 345 424 372 452 538 488 438 407 468 630 687 602 401 332 253 298 390 447 619 619 659 745 898 1239 1545 1462 1310 1216 1176 1003 858 1329 1408 1439 1331 1237 1255
7 0 18 240 467 578 396 166 488 451 339 261 344 512 506 615 826 835 775 582 498 458 415 709 677 653 529 686 547 828 1251 1468 1541 1325 1239 1286 1324 1291 1041 1255 1374 1278 1220
229 266 662 662 790 801 616 469 408 269 392 314 498 692 560 479 554 648 787 647 548 606 554 495 537 838 885 648 622 573 922 1074 1039 1070 1060 1128 1220 1324 1303 1100 1145 1332 1222
78 250 672 672 770 832 816 821 753 533 527 894 889 612 482 559 627 373 362 772 830 628 528 519 594 738 874 1073 614 673 477 684 679 849 852 856 928 1090 1186 1143 1046 1120 1282
466 507 733 633 637 599 253 475 756 780 681 660 705 720 454 251 112 502 275 89 372 692 768 630 558 637 761 768 1042 876 576 655 772 689 773 809 854 941 1028 1013 1040 1065 1175
56 138 507 691 839 354 5 233 677 862 689 587 783 604 361 131 223 180 324 443 575 650 549 761 316 914 755 821 949 1395 1418 1018 745 898 783 764 766 824 898 901 990 967 1008
1 238 619 894 783 808 671 696 922 895 878 498 657 743 569 606 328 241 210 416 455 630 198 29 96 146 510 564 476 767 659 350 261 992 1131 793 776 702 767 909 926 930 913
249 575 758 615 838 1233 1272 1035 1156 1215 932 810 691 634 556 529 541 497 349 403 176 220 174 11 1 138 197 176 88 132 149 163 300 24 499 1082 946 997 864 961 1067 1121 1047
1147 1174 972 885 1198 1456 1571 1438 1217 1147 1095 1030 1026 892 933 928 661 522 500 447 414 460 314 162 60 77 154 29 81 25 40 65 13 180 136 122 1171 1177 1290 1216 1317 1389 1340
562 453 494 636 498 281 494 809 1168 1233 1245 1253 1151 918 913 862 954 741 617 670 697 612 658 537 450 342 291 118 54 50 1 1 19 5 0 724 1191 1379 1524 1516 1453 1519 1593
3 0 0 0 0 0 0 12 254 626 663 383 533 754 778 869 779 786 899 783 550 534 560 545 667 679 524 249 112 31 0 0 12 67 371 635 1133 1463 1375 1373 1195 1175 1025
0 0 0 0 0 0 0 0 0 0 0 7 93 83 419 683 870 943 933 673 592 444 523 596 506 433 358 180 111 35 2 0 36 31 125 309 535 1106 1369 1348 1221 1093 838
0 0 0 0 0 0 0 0 0 0 0 0 0 0 41 54 114 493 932 802 736 726 697 534 602 635 471 316 263 252 77 40 29 50 147 159 306 637 986 1106 1147 1113 915
0 0 0 0 0 0 0 0 0 0 0 0 0 0 0 0 0 0 135 481 632 811 900 764 672 684 636 565 434 313 128 0 0 0 0 159 274 346 549 682 721 636 579
0 0 0 0 0 0 0 0 0 0 0 0 0 0 0 0 0 0 0 0 8 321 538 453 553 709 697 562 434 346 284 243 70 22 470 609 453 391 389 303 298 319 216
0 0 0 0 0 0 0 0 0 0 0 0 0 0 0 0 0 0 0 0 0 37 162 317 435 618 715 754 618 528 531 584 590 982 1014 960 679 649 495 302 193 126 194
0 0 0 0 0 0 0 0 0 0 0 0 0 0 0 0 0 0 0 0 0 12 192 342 297 284 362 422 530 566 496 530 692 885 1143 1067 858 595 357 379 171 165 151
0 0 0 0 0 0 0 0 0 0 0 0 0 0 0 0 0 0 0 0 0 0 43 197 206 255 274 282 278 432 505 365 448 608 658 794 634 516 420 258 254 200 157
0 0 0 0 1 3 1 0 0 0 0 0 0 0 0 0 0 0 0 0 13 7 1 17 20 34 90 198 289 377 410 257 236 638 803 628 508 442 340 176 84 51 288
0 1 2 4 1 0 0 0 0 0 0 0 0 0 0 0 0 0 0 0 0 0 15 22 89 148 207 220 185 262 217 256 297 313 315 85 151 244 373 518 472 393 294
0 0 1 10 2 0 0 0 0 0 0 0 0 0 0 0 0 0 0 0 0 0 0 0 0 18 55 67 185 232 115 19 6 2 319 258 287 362 466 598 557 400 267
0 0 0 0 0 2 0 0 0 0 0 0 0 0 0 0 0 0 0 0 0 0 0 0 0 0 0 0 0 4 46 64 209 198 122 60 219 4 1 32 516 248 104
0 0 0 0 0 5 0 0 0 0 0 0 0 0 0 0 0 0 0 0 0 0 0 6 0 0 0 0 0 0 69 120 55 66 5 0 3 2 0 46 163 94 0
CIN
-44 -46 -47 -54 -40 -49 -47 -50 -45 -39 -32 -26 -36 -53 -53 -60 -58 -57 -85 -71 -62 -60 -50 -36 -20 -18 -21 -22 -10 -10 -37 -53 -13 -2 -0 -0 -19 -34 -33 -33 -22 -21 -26
-43 -35 -33 -49 -41 -50 -42 -63 -42 -45 -42 -41 -62 -57 -39 -37 -37 -44 -47 -67 -46 -62 -52 -52 -42 -22 -7 -13 -22 -17 -6 -25 -43 -20 -0 -0 -0 -6 -13 -15 -13 -3 -5
-46 -7 -100 -76 -56 -37 -37 -32 -44 -62 -56 -64 -40 -39 -34 -36 -24 -26 -34 -67 -64 -39 -41 -50 -46 -35 -24 -10 -8 -13 -22 -23 -26 -32 -30 -4 -4 -1 -3 -3 -1 -4 -0
-104 -109 -0 -80 -57 -44 -36 -33 -44 -43 -31 -40 -40 -52 -44 -46 -38 -39 -47 -63 -88 -65 -48 -39 -51 -57 -59 -49 -29 -11 -8 -11 -13 -15 -14 -16 -15 -3 -1 -0 -1 -1 -2
-136 -0 -106 -68 -57 -39 -49 -68 -47 -54 -50 -55 -52 -50 -57 -57 -41 -31 -33 -50 -54 -70 -87 -30 -40 -57 -60 -63 -59 -50 -20 -11 -14 -16 -13 -5 -1 -3 -8 -3 -1 -3 -3
-92 -93 -57 -48 -43 -37 -40 -50 -48 -72 -51 -56 -47 -38 -46 -64 -69 -59 -43 -56 -58 -63 -82 -53 -57 -67 -72 -71 -70 -67 -50 -35 -29 -37 -37 -20 -9 -2 -2 -6 -4 -2 -6
-159 -96 -66 -52 -52 -45 -42 -52 -36 -29 -37 -28 -33 -35 -47 -58 -70 -81 -79 -74 -65 -51 -84 -88 -77 -71 -69 -69 -56 -67 -47 -46 -63 -42 -55 -68 -32 -13 -6 -6 -10 -3 -2
-144 -108 -66 -56 -56 -47 -52 -60 -37 -22 -30 -31 -16 -30 -37 -60 -134 -71 -99 -153 -98 -96 -75 -98 -117 -80 -88 -86 -83 -55 -69 -49 -36 -48 -55 -68 -67 -36 -19 -17 -15 -12 -1
-90 -189 -110 -71 -36 -76 -87 -85 -36 -34 -29 -33 -28 -16 -31 -56 -64 -81 -60 -86 -85 -99 -110 -79 -149 -94 -84 -66 -80 -64 -59 -39 -27 -20 -40 -59 -78 -61 -37 -34 -24 -26 -24
-150 -195 -134 -83 -82 -64 -55 -53 -50 -34 -21 -21 -31 -32 -34 -25 -31 -55 -78 -76 -103 -91 -173 -229 -183 -185 -118 -109 -116 -112 -127 -158 -142 -54 -11 -33 -54 -83 -51 -42 -35 -29 -39
-202 -190 -125 -120 -133 -31 -22 -36 -35 -29 -33 -38 -41 -39 -35 -37 -38 -34 -80 -63 -116 -97 -142 -210 -200 -179 -217 -180 -219 -171 -164 -189 -155 -221 -138 -29 -28 -58 -68 -45 -41 -27 -25
-38 -62 -93 -87 -46 -28 -31 -18 -32 -35 -31 -42 -22 -25 -18 -9 -27 -20 -50 -75 -92 -85 -104 -163 -187 -220 -237 -233 -183 -221 -202 -181 -241 -196 -214 -209 -38 -32 -54 -45 -38 -27 -13
-110 -106 -104 -88 -105 -148 -116 -68 -13 -18 -10 -10 -17 -28 -26 -26 -16 -25 -30 -40 -40 -65 -74 -96 -112 -163 -166 -198 -222 -189 -26 -148 -205 -199 -17 -104 -83 -46 -46 -38 -32 -21 -13
-36 -0 -0 -39 -0 -0 -0 -216 -150 -42 -29 -53 -28 -20 -15 -15 -22 -15 -5 -8 -34 -63 -66 -54 -90 -94 -129 -169 -194 -251 -0 -0 -96 -150 -122 -106 -94 -59 -32 -32 -28 -28 -28
-0 -0 -0 -0 -0 -0 -0 -0 -0 -0 -0 -282 -176 -165 -18 -7 -7 -6 -10 -14 -4 -37 -65 -91 -69 -112 -137 -177 -144 -223 -72 -0 -222 -232 -178 -109 -98 -80 -57 -36 -41 -45 -41
-0 -0 -0 -0 -0 -0 -0 -0 -0 -0 -0 -0 -0 -0 -141 -68 -100 -22 -4 -7 -10 -3 -5 -79 -68 -64 -77 -107 -131 -166 -209 -260 -257 -254 -200 -125 -106 -96 -70 -62 -62 -61 -66
-0 -0 -0 -0 -0 -0 -0 -0 -0 -0 -0 -0 -0 -0 -0 -0 -0 -0 -127 -11 -4 -2 -0 -25 -51 -43 -54 -60 -83 -134 -179 -0 -0 -0 -0 -88 -76 -87 -80 -79 -81 -94 -99
-0 -0 -0 -0 -0 -0 -0 -0 -0 -0 -0 -0 -0 -0 -0 -0 -0 -0 -0 -0 -16 -21 -2 -7 -32 -39 -40 -46 -74 -100 -100 -110 -161 -150 -74 -64 -85 -71 -71 -107 -126 -117 -142
-0 -0 -0 -0 -0 -0 -0 -0 -0 -0 -0 -0 -0 -0 -0 -0 -0 -0 -0 -0 -0 -146 -77 -13 -10 -16 -30 -32 -33 -74 -74 -77 -67 -46 -38 -48 -67 -71 -80 -109 -128 -146 -145
-0 -0 -0 -0 -0 -0 -0 -0 -0 -0 -0 -0 -0 -0 -0 -0 -0 -0 -0 -0 -0 -206 -71 -23 -23 -27 -33 -43 -30 -27 -42 -41 -34 -27 -25 -36 -54 -87 -115 -136 -171 -183 -179
-0 -0 -0 -0 -0 -0 -0 -0 -0 -0 -0 -0 -0 -0 -0 -0 -0 -0 -0 -0 -0 -1 -140 -73 -66 -36 -27 -42 -45 -30 -24 -66 -77 -59 -56 -52 -86 -88 -108 -147 -165 -183 -174
-0 -0 -0 -0 -1 -2 -10 -0 -0 -0 -0 -0 -0 -0 -0 -0 -0 -0 -0 -0 -25 -18 -12 -17 -13 -146 -100 -40 -31 -33 -6 -22 -63 -44 -26 -51 -78 -79 -124 -215 -229 -223 -137
-0 -2 -4 -4 -7 -15 -0 -0 -0 -0 -0 -0 -0 -0 -0 -0 -0 -0 -0 -0 -0 -0 -32 -80 -163 -99 -72 -64 -60 -28 -40 -43 -40 -58 -52 -182 -128 -105 -82 -98 -113 -124 -144
-0 -0 -8 -10 -19 -0 -0 -0 -0 -0 -0 -0 -0 -0 -0 -0 -0 -0 -0 -0 -0 -0 -0 -0 -0 -144 -182 -160 -76 -37 -67 -56 -82 -45 -50 -78 -68 -74 -72 -71 -71 -97 -137
-0 -0 -0 -0 -2 -9 -0 -0 -0 -0 -0 -0 -0 -0 -0 -0 -0 -0 -0 -0 -0 -0 -0 -0 -0 -0 -0 -0 -0 -59 -90 -88 -47 -32 -53 -108 -47 -30 -29 -117 -55 -112 -179
-0 -0 -0 -0 -0 -13 -0 -0 -0 -0 -0 -0 -0 -0 -0 -0 -0 -0 -0 -0 -0 -0 -0 -57 -0 -0 -0 -0 -0 -0 -87 -41 -60 -56 -8 -0 -5 -5 -0 -122 -114 -132 -0
Wind_Speed
19 20 20 20 21 21 20 20 20 20 19 19 19 19 19 18 19 18 17 18 19 19 19 19 19 19 20 20 20 20 19 19 21 21 21 20 20 21 21 21 22 23 24
19 21 21 20 19 20 20 20 19 19 19 19 18 19 20 19 18 17 16 17 19 18 19 20 19 19 20 20 20 21 20 19 21 23 23 23 22 21 22 23 23 23 24
19 20 20 19 17 17 20 19 18 17 17 17 18 17 18 19 17 17 15 16 17 18 19 19 18 18 19 20 20 20 21 21 21 22 24 25 25 25 22 23 24 24 25
18 19 19 18 17 18 19 19 18 16 17 17 18 18 18 18 17 14 15 15 14 16 18 18 19 18 18 20 20 20 20 21 22 22 23 25 26 27 26 24 25 25 25
20 20 19 18 15 18 19 17 15 14 18 17 17 17 16 15 17 17 14 16 15 14 14 15 19 20 19 18 18 18 22 22 21 22 23 24 25 26 28 27 26 26 27
20 20 20 17 17 18 19 19 16 14 16 17 17 19 16 15 15 14 15 13 13 15 13 15 17 19 20 20 18 17 19 20 22 22 21 23 25 26 26 27 27 26 26
21 21 21 20 19 18 18 18 17 15 15 15 14 20 22 14 11 14 14 11 11 9 9 9 13 15 18 20 20 18 22 22 21 22 22 21 23 25 26 26 26 27 26
20 20 21 22 21 19 18 15 14 16 15 12 13 18 19 21 15 9 9 8 6 6 5 6 12 14 10 16 14 19 23 22 25 25 22 21 21 24 25 26 26 25 26
16 18 21 21 20 14 22 13 17 14 17 11 8 10 18 16 19 16 16 13 8 9 7 9 9 10 1 8 2 7 18 22 27 27 26 22 20 21 24 24 26 26 24
14 17 22 23 24 22 20 15 16 5 10 3 17 12 9 14 17 21 17 19 19 14 10 8 9 10 6 2 6 9 10 9 31 31 30 27 25 19 23 24 25 26 25
12 19 19 20 22 24 25 24 20 15 14 12 11 14 13 11 8 11 16 18 20 17 16 8 9 11 7 9 13 18 12 9 16 26 34 34 26 23 21 22 24 26 26
13 13 12 13 19 21 21 22 23 21 20 16 8 16 15 10 11 15 8 9 12 19 16 4 3 6 2 7 9 19 24 14 11 9 35 34 31 24 19 21 22 24 25
13 15 15 17 19 21 23 23 24 23 25 24 15 20 19 1 7 9 6 3 3 10 13 7 1 2 6 2 1 4 22 10 21 33 35 34 31 22 18 22 23 23 23
17 20 21 21 22 23 24 25 25 24 23 24 25 25 25 24 18 14 10 12 13 15 16 8 8 3 2 5 2 2 4 8 24 30 32 33 34 30 19 17 23 25 24
20 22 23 23 23 24 24 25 25 25 24 24 24 24 24 24 23 20 15 12 11 15 13 17 14 8 7 6 2 3 1 6 27 30 34 35 34 35 29 21 19 27 28
19 20 21 22 22 23 23 23 24 24 24 24 24 24 23 24 25 25 20 17 13 11 13 14 13 12 8 6 2 2 3 17 17 31 34 36 37 38 33 26 20 20 25
19 20 20 21 21 22 22 21 21 23 24 24 24 24 25 26 26 25 24 21 21 18 16 19 15 13 10 5 4 5 4 4 8 8 28 14 33 20 28 32 15 15 13
20 19 20 20 22 21 21 23 24 25 26 26 26 27 29 28 28 26 25 26 24 22 21 24 22 19 12 11 7 6 6 9 10 10 10 13 18 20 18 34 22 20 20
19 20 20 21 19 21 23 24 26 27 27 27 28 28 29 28 27 26 25 26 26 23 21 23 24 22 21 19 20 18 14 14 12 9 12 24 8 7 9 13 10 12 20
19 20 21 21 20 21 24 26 27 28 28 28 27 27 28 28 27 27 26 26 25 25 22 23 25 24 23 22 20 22 25 22 25 24 22 23 21 13 10 7 8 19 14
18 20 20 21 21 21 24 25 27 27 26 27 28 29 29 30 29 26 24 25 26 26 25 24 26 27 26 26 25 22 24 28 29 26 26 25 23 22 21 17 13 15 20
19 20 20 20 21 21 22 24 26 26 26 27 28 29 28 27 27 27 28 28 27 27 28 26 26 27 28 27 27 26 25 26 25 21 21 25 22 23 21 19 19 15 19
20 21 22 18 18 20 22 25 27 26 27 28 27 26 27 28 29 30 30 29 28 28 26 25 27 27 27 27 26 25 25 24 24 26 25 29 26 29 28 26 24 23 21
22 21 21 20 19 19 21 25 27 27 28 27 26 25 27 30 31 31 30 30 29 28 28 27 26 28 28 28 23 23 23 24 25 24 23 25 24 27 28 28 29 29 29
21 19 20 21 19 19 21 25 27 28 29 29 27 26 29 30 31 30 28 30 30 30 29 27 24 22 24 25 24 22 25 26 26 24 23 25 24 27 27 26 23 24 27
19 20 22 21 21 17 19 23 26 27 29 28 27 26 28 29 29 26 27 29 29 29 28 25 25 25 26 25 24 22 21 22 24 24 23 29 26 26 27 24 25 27 30
Wind_Direction
139 153 162 163 176 179 171 170 181 177 177 181 191 189 188 184 183 182 179 184 174 173 175 177 175 174 178 180 177 174 173 176 181 183 180 174 171 176 174 171 176 183 189
156 182 175 164 178 165 180 173 174 173 183 182 188 194 197 193 182 180 182 178 176 175 179 181 179 180 180 182 185 184 181 180 183 190 192 191 186 180 184 185 184 186 191
151 181 178 166 151 144 169 165 161 155 174 175 182 183 185 188 176 174 168 170 171 184 183 182 179 178 180 184 187 188 188 187 187 189 195 199 199 194 186 188 191 193 195
159 206 184 172 160 154 206 188 172 149 175 177 186 186 187 185 180 162 169 168 165 175 182 185 186 177 175 182 182 186 189 191 192 192 193 199 203 204 198 193 195 197 196
199 201 198 173 148 198 213 191 159 140 208 179 187 194 185 178 193 187 168 178 178 177 173 178 187 187 184 181 181 182 195 196 192 195 196 199 201 203 205 203 200 202 205
220 211 205 198 177 185 202 207 188 162 185 199 207 222 202 188 191 184 187 180 183 182 168 173 181 189 193 193 191 186 188 192 198 195 192 196 201 203 202 203 205 202 202
225 228 220 212 209 188 187 202 196 194 192 197 196 246 245 196 181 184 180 174 176 155 155 165 184 185 193 198 200 194 203 205 199 200 197 192 196 200 202 201 200 202 202
233 266 256 240 227 210 202 181 166 199 203 173 177 252 281 307 7 113 154 152 73 46 40 23 329 195 194 199 196 204 206 210 212 211 201 195 193 198 199 201 201 198 201
246 294 275 257 217 169 221 180 208 189 213 178 114 30 342 1 336 359 347 2 15 2 360 337 352 347 41 177 313 195 203 213 222 216 207 199 194 194 198 199 202 201 197
332 303 280 278 253 232 214 194 331 63 3 153 340 0 6 359 349 336 347 340 342 351 4 10 352 346 358 262 317 320 324 308 274 275 223 207 203 192 197 198 201 202 200
4 303 298 280 258 262 271 285 315 339 345 355 356 348 353 359 8 357 343 343 336 346 349 11 352 355 2 350 328 318 328 311 302 286 248 235 204 197 195 198 200 202 202
354 329 6 333 304 313 310 310 307 319 329 341 5 338 342 345 347 344 358 217 347 339 349 57 107 26 90 345 342 326 279 307 296 287 240 244 217 201 196 197 198 201 201
328 327 338 334 322 318 310 299 308 314 304 315 297 300 331 251 1 357 357 237 356 360 355 6 150 67 191 195 253 337 320 321 289 267 258 255 222 202 198 201 201 202 201
316 301 308 319 316 308 306 305 302 307 315 317 313 317 320 322 336 342 347 343 342 342 341 1 13 39 41 17 168 210 330 332 296 261 264 254 240 216 204 202 204 206 205
317 308 307 308 306 303 306 308 309 310 314 320 323 325 326 327 328 334 342 344 343 335 336 337 350 17 5 11 19 3 188 193 238 257 253 253 267 239 216 207 205 208 211
328 323 320 320 320 320 320 322 320 323 323 325 327 327 329 329 326 326 336 342 342 337 330 337 343 347 352 343 275 281 221 214 210 260 255 266 262 256 224 213 208 208 210
340 336 338 337 334 335 336 340 341 337 332 329 328 327 323 317 318 324 332 336 332 335 331 327 332 338 338 312 299 318 313 214 211 221 298 220 238 291 283 275 272 214 259
332 338 340 339 336 345 345 339 334 332 330 328 325 319 308 310 314 322 325 324 329 332 329 324 328 329 332 338 331 312 305 317 313 311 233 223 302 297 291 273 214 278 281
339 339 341 343 353 348 343 340 336 332 331 327 320 316 314 318 320 323 324 322 324 329 329 326 324 329 327 328 325 325 323 320 316 301 257 247 295 250 275 278 243 235 277
345 343 345 351 352 349 342 336 330 327 326 324 324 322 320 323 326 325 324 326 326 325 326 324 322 322 323 325 326 321 314 317 313 312 308 306 307 306 296 246 261 286 271
349 344 344 344 347 349 345 341 337 334 334 330 326 325 324 323 324 330 332 330 327 326 324 322 319 318 317 315 315 318 315 311 307 309 304 302 303 301 299 298 293 295 286
347 347 351 350 348 351 350 346 341 340 337 335 331 328 333 338 335 332 329 326 326 325 321 321 321 320 318 316 312 310 312 312 311 314 313 306 309 306 303 296 297 300 299
343 344 343 354 357 355 351 345 341 344 340 336 335 338 338 338 335 331 329 331 329 327 327 323 318 318 319 320 318 315 313 313 310 309 308 299 303 299 299 298 299 298 297
339 341 343 350 356 355 352 346 343 344 341 339 340 342 340 336 336 334 334 334 333 333 331 330 326 322 319 317 315 316 317 315 314 313 316 307 308 301 302 298 296 295 294
344 345 346 347 352 352 351 346 344 342 338 337 339 341 336 334 333 336 337 334 333 333 333 334 339 341 336 335 326 315 310 310 309 311 315 310 309 306 305 303 306 308 304
350 346 341 345 348 356 354 349 346 345 341 339 340 342 340 338 338 342 340 338 336 337 339 340 338 337 336 334 335 334 323 314 313 311 316 310 307 309 303 304 306 306 304